FW9289 Weather Reports


Display with metric or nautical units.
time (UTC)temp
F
wind
direction
speed
MPH
gust
MPH
rain 1hr
in
rain 24hr
in
rain mn
in
humidity
%
barometer
mb
20260507032541 53 0 0.0 0.0 0.00 0.00 0.00 96 1021.1
20260507032041 53 0 0.0 0.0 0.00 0.00 0.00 96 1021.1
20260507031550 53 0 0.0 0.0 0.00 0.00 0.00 96 1021.0
20260507031041 53 0 0.0 0.0 0.00 0.00 0.00 96 1021.0
20260507030545 53 0 0.0 0.0 0.00 0.00 0.00 96 1021.1
20260507030050 53 0 0.0 0.0 0.00 0.00 0.00 96 1021.0
20260507025541 53 0 0.0 0.0 0.00 0.00 0.00 96 1020.9
20260507025047 53 0 0.0 0.0 0.00 0.00 0.00 96 1020.9
20260507024554 53 0 0.0 0.0 0.00 0.00 0.00 96 1020.8
20260507024040 53 0 0.0 0.0 0.00 0.00 0.00 96 1020.8
20260507023541 53 0 0.0 0.0 0.00 0.00 0.00 96 1020.8
20260507023102 53 0 0.0 0.0 0.00 0.00 0.00 96 1020.9
20260507022544 53 0 0.0 0.0 0.00 0.00 0.00 96 1020.9
20260507022044 53 0 0.0 0.0 0.00 0.00 0.00 95 1020.7
20260507021551 53 0 0.0 0.0 0.00 0.00 0.00 95 1020.9
20260507021042 54 0 0.0 0.0 0.00 0.00 0.00 95 1020.9
20260507020542 54 0 0.0 0.0 0.00 0.00 0.00 95 1020.9
20260507020055 53 0 0.0 0.0 0.00 0.00 0.00 95 1020.9
20260507015545 54 0 0.0 0.0 0.00 0.00 0.00 95 1020.9
20260507015042 54 0 0.0 0.0 0.00 0.00 0.00 95 1020.9
20260507014556 53 0 0.0 0.0 0.00 0.00 0.00 95 1020.8
20260507014044 53 0 0.0 0.0 0.00 0.00 0.00 95 1020.8
20260507013545 53 0 0.0 0.0 0.00 0.00 0.00 95 1020.9
20260507013046 53 0 0.0 0.0 0.00 0.00 0.00 95 1020.8
20260507012546 53 0 0.0 0.0 0.00 0.00 0.00 95 1020.8
20260507012042 53 0 0.0 0.0 0.00 0.00 0.00 95 1020.8
20260507011551 53 0 0.0 2.0 0.00 0.00 0.00 95 1020.9
20260507011042 53 0 0.0 2.0 0.00 0.00 0.00 95 1020.9
20260507010541 53 0 0.0 2.0 0.00 0.00 0.00 95 1020.9
20260507010052 53 0 0.0 1.0 0.00 0.00 0.00 95 1021.0
20260507005542 53 0 0.0 0.0 0.00 0.00 0.00 95 1021.1
20260507005041 53 0 0.0 0.0 0.00 0.00 0.00 95 1021.3
20260507004554 53 0 0.0 1.0 0.00 0.00 0.00 94 1021.3
20260507004041 53 0 0.0 1.0 0.00 0.00 0.00 94 1021.4
20260507003542 53 92 0.0 1.0 0.00 0.00 0.00 94 1021.3
20260507003106 53 0 0.0 2.0 0.00 0.00 0.00 94 1021.3
20260507002545 53 0 0.0 2.0 0.00 0.00 0.00 93 1021.3
20260507002044 54 0 0.0 1.0 0.00 0.00 0.00 93 1021.4
20260507001612 54 0 0.0 1.0 0.00 0.00 0.00 93 1021.2
20260507001041 54 0 0.0 2.0 0.00 0.00 0.00 93 1021.0
20260507000543 54 0 0.0 2.0 0.00 0.00 0.00 92 1021.0
20260507000054 54 0 0.0 2.0 0.00 0.00 0.00 91 1021.1
20260506235544 54 28 0.0 1.0 0.00 0.00 0.00 91 1021.0
20260506235041 54 0 0.0 2.0 0.00 0.00 0.00 91 1020.9
20260506234556 54 0 0.0 2.0 0.00 0.00 0.00 90 1021.0
20260506234041 54 0 0.0 4.0 0.00 0.00 0.00 91 1021.0
20260506233544 54 0 1.0 4.0 0.00 0.00 0.00 90 1020.8
20260506233051 54 242 1.0 4.0 0.00 0.00 0.00 90 1020.8
20260506232543 55 0 0.0 3.0 0.00 0.00 0.00 90 1020.8
20260506232042 55 10 0.0 1.0 0.00 0.00 0.00 90 1020.7
20260506231554 55 0 0.0 2.0 0.00 0.00 0.00 89 1020.7
20260506231041 55 0 0.0 2.0 0.00 0.00 0.00 89 1020.7
20260506230541 56 207 0.0 1.0 0.00 0.00 0.00 89 1020.6
20260506225541 56 147 1.0 3.0 0.00 0.00 0.00 86 1020.7
20260506225042 56 237 0.0 3.0 0.00 0.00 0.00 87 1020.7
20260506224553 55 238 0.0 5.0 0.00 0.00 0.00 87 1020.8
20260506224042 55 0 1.0 8.0 0.00 0.00 0.00 87 1020.7
20260506223544 55 320 1.0 8.0 0.00 0.00 0.00 87 1020.8
20260506223058 56 265 1.0 4.0 0.00 0.00 0.00 86 1021.0
20260506222541 56 32 1.0 5.0 0.00 0.00 0.00 86 1020.8
20260506222042 56 0 1.0 7.0 0.00 0.00 0.00 86 1020.9
20260506221606 56 9 1.0 7.0 0.00 0.00 0.00 85 1020.8
20260506221041 56 258 1.0 5.0 0.00 0.00 0.00 85 1020.9
20260506220544 56 87 2.0 6.0 0.00 0.00 0.00 84 1020.8
20260506220049 57 307 2.0 7.0 0.00 0.00 0.00 83 1020.7
20260506215543 57 54 2.0 7.0 0.00 0.00 0.00 82 1020.8
20260506215040 58 175 1.0 8.0 0.00 0.00 0.00 81 1020.7
20260506214554 57 162 2.0 8.0 0.00 0.00 0.00 82 1020.7
20260506214042 57 334 2.0 8.0 0.00 0.00 0.00 82 1020.7
20260506213543 57 32 3.0 8.0 0.00 0.00 0.00 81 1020.8
20260506213053 58 118 2.0 8.0 0.00 0.00 0.00 81 1020.9
20260506212541 58 263 2.0 8.0 0.00 0.00 0.00 82 1020.8
20260506212042 58 309 2.0 8.0 0.00 0.00 0.00 80 1020.8
20260506211551 58 320 1.0 9.0 0.00 0.00 0.00 80 1020.9
20260506211042 58 327 2.0 9.0 0.00 0.00 0.00 80 1020.7
20260506210543 59 350 2.0 9.0 0.00 0.00 0.00 80 1020.7
20260506210100 60 255 3.0 9.0 0.00 0.00 0.00 78 1020.6
20260506205549 60 211 2.0 11.0 0.00 0.00 0.00 78 1020.5
20260506205043 60 277 2.0 11.0 0.00 0.00 0.00 78 1020.6
20260506204557 60 321 3.0 9.0 0.00 0.00 0.00 78 1020.5
20260506204041 60 94 1.0 4.0 0.00 0.00 0.00 80 1020.4
20260506203541 59 131 1.0 5.0 0.00 0.00 0.00 81 1020.5
20260506203119 59 266 2.0 5.0 0.00 0.00 0.00 80 1020.5
20260506202544 60 5 1.0 6.0 0.00 0.00 0.00 81 1020.5
20260506202044 59 234 1.0 7.0 0.00 0.00 0.00 80 1020.4
20260506201558 60 88 2.0 7.0 0.00 0.00 0.00 79 1020.4
20260506201049 61 213 1.0 6.0 0.00 0.00 0.00 77 1020.4
20260506200552 62 102 1.0 6.0 0.00 0.00 0.00 77 1020.4
20260506200056 61 94 2.0 7.0 0.00 0.00 0.00 79 1020.3
20260506195547 60 144 2.0 7.0 0.00 0.00 0.00 79 1020.4
20260506195044 61 301 1.0 7.0 0.00 0.00 0.00 79 1020.4
20260506194553 61 140 2.0 7.0 0.00 0.00 0.00 78 1020.3
20260506194044 62 63 0.0 5.0 0.00 0.00 0.00 78 1020.3
20260506193545 61 78 1.0 5.0 0.00 0.00 0.00 79 1020.2
20260506193103 61 0 1.0 4.0 0.00 0.00 0.00 79 1020.3
20260506192546 60 63 1.0 6.0 0.00 0.00 0.00 82 1020.4
20260506192045 60 0 1.0 7.0 0.00 0.00 0.00 81 1020.3
20260506191553 59 46 1.0 7.0 0.00 0.00 0.00 81 1020.4
20260506191046 60 134 1.0 4.0 0.00 0.00 0.00 80 1020.4
20260506190546 60 147 0.0 4.0 0.00 0.00 0.00 80 1020.3
20260506190056 60 242 1.0 3.0 0.00 0.00 0.00 80 1020.3
20260506185546 59 0 0.0 4.0 0.00 0.00 0.00 81 1020.3
20260506185045 59 107 0.0 4.0 0.00 0.00 0.00 81 1020.3
20260506184553 59 0 0.0 8.0 0.00 0.00 0.00 82 1020.2
20260506184046 59 307 1.0 8.0 0.00 0.00 0.00 81 1020.1
20260506183547 59 105 1.0 7.0 0.00 0.00 0.00 82 1020.1
20260506183100 58 0 0.0 3.0 0.00 0.00 0.00 84 1020.1
20260506182545 58 19 1.0 3.0 0.00 0.00 0.00 84 1020.2
20260506182047 57 329 0.0 3.0 0.00 0.00 0.00 85 1020.1
20260506181556 57 0 1.0 3.0 0.00 0.00 0.00 86 1020.1
20260506181046 57 0 0.0 3.0 0.00 0.00 0.00 86 1020.2
20260506180550 57 0 0.0 3.0 0.00 0.00 0.00 86 1020.3
20260506175545 57 348 1.0 5.0 0.00 0.00 0.00 87 1020.4
20260506175049 57 88 0.0 3.0 0.00 0.00 0.00 86 1020.4
20260506174556 57 0 0.0 4.0 0.00 0.00 0.00 85 1020.3
20260506174045 57 0 1.0 4.0 0.00 0.00 0.00 85 1020.4
20260506173545 58 138 0.0 6.0 0.00 0.00 0.00 85 1020.3
20260506173058 57 350 0.0 6.0 0.00 0.00 0.00 85 1020.2
20260506172544 57 102 0.0 6.0 0.00 0.00 0.00 84 1020.2
20260506172045 57 16 1.0 6.0 0.00 0.00 0.00 84 1020.1
20260506171559 57 109 1.0 4.0 0.00 0.00 0.00 85 1020.1
20260506171045 57 157 1.0 4.0 0.00 0.00 0.00 85 1020.0
20260506170546 56 244 1.0 7.0 0.00 0.00 0.00 85 1020.0
20260506170054 56 316 1.0 7.0 0.00 0.00 0.00 85 1019.8
20260506165543 56 57 0.0 3.0 0.00 0.00 0.00 86 1019.8
20260506165042 56 5 1.0 3.0 0.00 0.00 0.00 87 1019.7
20260506164605 56 0 0.0 3.0 0.00 0.00 0.00 87 1019.8
20260506164041 56 0 0.0 4.0 0.00 0.00 0.00 87 1019.8
20260506163541 56 0 0.0 4.0 0.00 0.00 0.00 87 1019.8
20260506163100 55 106 2.0 4.0 0.00 0.00 0.00 88 1019.7
20260506162545 55 119 1.0 4.0 0.00 0.00 0.00 88 1019.9
20260506162042 55 126 0.0 4.0 0.00 0.00 0.00 88 1019.8
20260506161550 55 71 1.0 4.0 0.00 0.00 0.00 88 1019.8
20260506161046 55 0 1.0 3.0 0.00 0.00 0.00 88 1020.0
20260506160544 55 273 1.0 3.0 0.00 0.00 0.00 88 1020.0
20260506160059 55 0 0.0 3.0 0.00 0.00 0.00 88 1020.0
20260506155542 55 0 0.0 0.0 0.00 0.00 0.00 89 1019.9
20260506155042 55 0 0.0 0.0 0.00 0.00 0.00 88 1019.8
20260506154554 55 0 0.0 0.0 0.00 0.00 0.00 89 1019.7
20260506154042 55 0 0.0 0.0 0.00 0.00 0.00 90 1019.8
20260506153546 54 0 0.0 0.0 0.00 0.00 0.00 91 1019.9
20260506153053 54 0 0.0 0.0 0.00 0.00 0.00 91 1020.0
20260506152541 54 0 0.0 1.0 0.00 0.00 0.00 91 1020.0
20260506152043 54 0 0.0 3.0 0.00 0.00 0.00 91 1020.1
20260506151556 54 0 0.0 3.0 0.00 0.00 0.00 90 1020.0
20260506151041 54 107 1.0 5.0 0.00 0.00 0.00 90 1020.1
20260506150544 54 269 0.0 5.0 0.00 0.00 0.00 90 1020.0
20260506150100 54 263 0.0 5.0 0.00 0.00 0.00 91 1019.9
20260506145540 54 0 0.0 2.0 0.00 0.00 0.00 92 1019.7
20260506145041 54 0 0.0 1.0 0.00 0.00 0.00 92 1019.5
20260506144550 54 0 0.0 1.0 0.00 0.00 0.00 92 1019.5
20260506144041 54 0 0.0 0.0 0.00 0.00 0.00 92 1019.6
20260506143542 53 0 0.0 2.0 0.00 0.00 0.00 92 1019.6
20260506143048 53 0 0.0 2.0 0.00 0.00 0.00 92 1019.7
20260506142541 53 0 0.0 3.0 0.00 0.00 0.00 92 1019.8
20260506142041 53 0 0.0 3.0 0.00 0.00 0.00 92 1019.9
20260506141552 53 270 0.0 6.0 0.00 0.00 0.00 93 1019.8
20260506141042 53 0 0.0 6.0 0.00 0.00 0.00 93 1019.8
20260506140541 53 84 0.0 2.0 0.00 0.00 0.00 93 1020.0
20260506140054 53 0 0.0 2.0 0.00 0.00 0.00 94 1019.9
20260506135542 53 0 0.0 2.0 0.00 0.00 0.00 93 1019.6
20260506135041 53 190 0.0 2.0 0.00 0.00 0.00 94 1019.6
20260506134552 53 0 0.0 2.0 0.00 0.00 0.00 94 1019.5
20260506134045 53 0 0.0 0.0 0.00 0.00 0.00 95 1019.4
20260506133541 53 0 0.0 0.0 0.00 0.00 0.00 95 1019.1
20260506133104 53 0 0.0 0.0 0.00 0.00 0.00 95 1019.3
20260506132541 53 0 0.0 0.0 0.00 0.00 0.00 95 1019.2
20260506132043 53 0 0.0 0.0 0.00 0.00 0.00 96 1019.4
20260506131606 53 0 0.0 0.0 0.00 0.00 0.00 96 1019.2
20260506131044 52 0 0.0 0.0 0.00 0.00 0.00 96 1019.3
20260506130542 52 0 0.0 0.0 0.00 0.00 0.00 96 1019.1
20260506130051 53 0 0.0 0.0 0.00 0.00 0.00 96 1019.1
20260506125541 53 0 0.0 0.0 0.00 0.00 0.00 96 1019.0
20260506125041 53 0 0.0 0.0 0.00 0.00 0.00 96 1018.9
20260506124550 53 0 0.0 0.0 0.00 0.00 0.00 96 1019.0
20260506124045 53 0 0.0 0.0 0.00 0.00 0.00 97 1019.0
20260506123543 52 0 0.0 0.0 0.00 0.00 0.00 97 1018.9
20260506123049 52 0 0.0 0.0 0.00 0.00 0.00 97 1018.9
20260506122541 52 0 0.0 0.0 0.00 0.00 0.00 97 1018.8
20260506122041 52 0 0.0 0.0 0.00 0.00 0.00 97 1018.7
20260506121557 52 0 0.0 0.0 0.00 0.00 0.00 97 1018.7
20260506121042 52 0 0.0 0.0 0.00 0.00 0.00 97 1018.6
20260506120542 52 0 0.0 0.0 0.00 0.00 0.00 97 1018.5
20260506120100 52 0 0.0 2.0 0.00 0.00 0.00 98 1018.6
20260506115542 52 0 0.0 2.0 0.00 0.00 0.00 97 1018.7
20260506115042 52 0 0.0 2.0 0.00 0.00 0.00 97 1018.7
20260506114546 52 0 0.0 3.0 0.00 0.00 0.00 97 1018.6
20260506114046 52 0 0.0 3.0 0.00 0.00 0.00 98 1018.5
20260506113541 52 0 0.0 0.0 0.00 0.00 0.00 98 1018.6
20260506113049 51 0 0.0 0.0 0.00 0.00 0.00 98 1018.7
20260506112545 51 0 0.0 0.0 0.00 0.00 0.00 98 1018.6
20260506112041 51 0 0.0 0.0 0.00 0.00 0.00 98 1018.6
20260506111548 51 0 0.0 0.0 0.00 0.00 0.00 98 1018.6
20260506111042 51 0 0.0 0.0 0.00 0.00 0.00 98 1018.6
20260506110542 51 0 0.0 0.0 0.00 0.00 0.00 98 1018.5
20260506110059 51 0 0.0 0.0 0.00 0.00 0.00 98 1018.4
20260506105542 51 0 0.0 0.0 0.00 0.00 0.00 98 1018.4
20260506105046 51 0 0.0 0.0 0.00 0.00 0.00 98 1018.4
20260506104611 51 0 0.0 0.0 0.00 0.00 0.00 98 1018.3
20260506104041 51 0 0.0 0.0 0.00 0.00 0.00 98 1018.3
20260506103544 51 0 0.0 0.0 0.00 0.00 0.00 98 1018.2
20260506103100 51 0 0.0 0.0 0.00 0.00 0.00 98 1018.1
20260506102549 51 0 0.0 0.0 0.00 0.00 0.00 98 1018.1
20260506102049 51 0 0.0 0.0 0.00 0.00 0.00 98 1018.0
20260506101554 51 0 0.0 0.0 0.00 0.00 0.00 98 1018.0
20260506101042 51 0 0.0 0.0 0.00 0.00 0.00 98 1017.8
20260506100544 51 0 0.0 0.0 0.00 0.00 0.00 98 1017.8
20260506100111 50 0 0.0 0.0 0.00 0.00 0.00 98 1017.8
20260506095542 50 0 0.0 0.0 0.00 0.00 0.00 98 1017.7
20260506095042 50 0 0.0 0.0 0.00 0.00 0.00 98 1017.8
20260506094601 50 0 0.0 0.0 0.00 0.00 0.00 98 1017.8
20260506094041 50 0 0.0 0.0 0.00 0.00 0.00 98 1017.8
20260506093544 50 0 0.0 0.0 0.00 0.00 0.00 98 1017.8
20260506093055 50 0 0.0 0.0 0.00 0.00 0.00 98 1017.7
20260506092545 50 0 0.0 0.0 0.00 0.00 0.00 98 1017.8
20260506092045 50 0 0.0 0.0 0.00 0.00 0.00 98 1017.6
20260506091552 50 0 0.0 0.0 0.00 0.00 0.00 98 1017.7
20260506091043 50 0 0.0 0.0 0.00 0.00 0.00 98 1017.7
20260506090546 50 0 0.0 0.0 0.00 0.00 0.00 98 1017.7
20260506090053 50 0 0.0 0.0 0.00 0.00 0.00 98 1017.6
20260506085545 49 0 0.0 0.0 0.00 0.00 0.00 98 1017.6
20260506085045 49 0 0.0 0.0 0.00 0.00 0.00 97 1017.5
20260506084619 49 0 0.0 0.0 0.00 0.00 0.00 98 1017.5
20260506084045 49 0 0.0 0.0 0.00 0.00 0.00 97 1017.5
20260506083545 49 0 0.0 0.0 0.00 0.00 0.00 97 1017.4
20260506083054 49 0 0.0 0.0 0.00 0.00 0.00 97 1017.5
20260506082544 49 0 0.0 0.0 0.00 0.00 0.00 98 1017.5
20260506082045 49 0 0.0 0.0 0.00 0.00 0.00 98 1017.6
20260506081559 49 0 0.0 0.0 0.00 0.00 0.00 98 1017.6
20260506081044 49 0 0.0 0.0 0.00 0.00 0.00 97 1017.6
20260506080542 49 0 0.0 0.0 0.00 0.00 0.00 97 1017.6
20260506073050 48 0 0.0 0.0 0.00 0.00 0.00 97 1017.5
20260506072541 48 0 0.0 0.0 0.00 0.00 0.00 97 1017.5
20260506072042 48 0 0.0 0.0 0.00 0.00 0.00 97 1017.5
20260506071558 48 0 0.0 0.0 0.00 0.00 0.00 97 1017.4
20260506071041 48 0 0.0 0.0 0.00 0.00 0.00 97 1017.4
20260506070541 48 0 0.0 0.0 0.00 0.00 0.00 97 1017.5
20260506062041 49 0 0.0 0.0 0.00 0.00 0.00 97 1016.9
20260506061549 49 0 0.0 0.0 0.00 0.00 0.00 97 1016.9
20260506061041 49 0 0.0 0.0 0.00 0.00 0.00 97 1017.0
20260506060542 49 0 0.0 0.0 0.00 0.00 0.00 96 1017.0
20260506051041 50 0 0.0 0.0 0.00 0.00 0.00 96 1016.7
20260506050542 51 0 0.0 0.0 0.00 0.00 0.00 96 1016.8
20260506045041 51 0 0.0 0.0 0.00 0.00 0.00 96 1016.7
20260506044549 51 0 0.0 0.0 0.00 0.00 0.00 96 1016.7
20260506044045 51 0 0.0 0.0 0.00 0.00 0.00 96 1016.8
20260506043544 51 0 0.0 0.0 0.00 0.00 0.00 95 1016.7
20260506043054 52 0 0.0 0.0 0.00 0.00 0.00 95 1016.7
20260506042541 52 0 0.0 0.0 0.00 0.00 0.00 95 1016.6
20260506042041 52 0 0.0 0.0 0.00 0.00 0.00 95 1016.6
20260506041604 52 0 0.0 0.0 0.00 0.00 0.00 95 1016.5
20260506041044 53 0 0.0 0.0 0.00 0.00 0.00 95 1016.5
20260506040541 53 0 0.0 0.0 0.00 0.00 0.00 94 1016.5
20260506040053 53 0 0.0 0.0 0.00 0.00 0.00 94 1016.5
20260506035541 53 0 0.0 0.0 0.00 0.00 0.00 94 1016.5
20260506035041 53 0 0.0 0.0 0.00 0.00 0.00 94 1016.3
20260506034559 54 0 0.0 0.0 0.00 0.00 0.00 94 1016.2
20260506034043 54 0 0.0 0.0 0.00 0.00 0.00 94 1016.1
20260506033542 54 0 0.0 0.0 0.00 0.00 0.00 94 1016.2
20260506033053 54 0 0.0 0.0 0.00 0.00 0.00 93 1016.2